sat.trackr.live / text

‹ back to catalog

STARLINK-35316

NORAD 65742 · 2025-216J

PAYLOAD ACTIVE UNKNOWN

§ Identity

Operator
Country
US
Launch date
2025-09-25
Launch site
AFETR
Launch vehicle
Mass (kg)
RCS (m²)

Purposes: comms

External: N2YO · Heavens-Above · Gunter

§ Orbital elements

Epoch: 2026-05-24T23:29:58.261920Z

Period
94.10 min
Inclination
53.1608°
Eccentricity
0.0001028
Mean motion
15.30207015 rev/d
Perigee alt
474.5 km
Apogee alt
475.9 km
Semi-major
6,853.3 km
B*
4.8066e-4
RAAN
338.5519°
Arg perigee
94.5404°
Mean anomaly
265.5715°
Rev number
3,714

§ Raw data

STARLINK-353161 65742U 25216J   26144.97914655  .00013906  00000+0  48066-3 0  99982 65742  53.1608 338.5519 0001028  94.5404 265.5715 15.30207015 37140

JSON: /api/v1/satellites/65742 · /tle

For live sub-satellite position, see the globe view (requires WebGL).

§ Visibility from observer

Set your observer location to see the next 7 days of passes ≥ 10°. The values pass through the URL so the page stays shareable.

No JS? Fill the form by hand. The geolocation button needs JavaScript.